GW1920 Weather Reports


Display with metric or nautical units.
time (UTC)temp
F
wind
direction
speed
MPH
gust
MPH
rain 1hr
in
rain 24hr
in
rain mn
in
humidity
%
barometer
mb
20260510051854 53 7 0.0 0.0 0.00 0.00 0.00 98 1013.3
20260510051350 53 6 0.0 0.0 0.00 0.00 0.00 98 1013.2
20260510050847 53 6 0.0 0.0 0.00 0.00 0.00 99 1013.0
20260510050344 53 10 0.0 0.0 0.00 0.00 0.00 99 1013.1
20260510045841 53 10 0.0 0.0 0.00 0.00 0.00 99 1013.1
20260510045338 54 12 0.0 0.0 0.00 0.00 0.00 99 1012.9
20260510044835 54 12 0.0 0.0 0.00 0.00 0.00 99 1012.8
20260510044332 54 12 0.0 0.0 0.00 0.00 0.00 99 1012.6
20260510043828 54 12 0.0 0.0 0.00 0.00 0.00 99 1012.8
20260510043324 54 12 0.0 0.0 0.00 0.00 0.00 99 1012.7
20260510042822 54 12 0.0 0.0 0.00 0.00 0.00 99 1012.4
20260510042318 54 12 0.0 0.0 0.00 0.00 0.00 98 1012.4
20260510041814 54 13 0.0 0.0 0.00 0.00 0.00 98 1012.5
20260510041312 54 12 0.0 0.0 0.00 0.00 0.00 98 1012.5
20260510040809 54 12 0.0 0.0 0.00 0.00 0.00 98 1012.5
20260510040305 54 13 0.0 0.0 0.00 0.00 0.00 98 1012.5
20260510035801 54 10 0.0 0.0 0.00 0.00 0.00 97 1012.5
20260510035257 54 11 0.0 0.0 0.00 0.00 0.00 97 1012.3
20260510034753 54 11 0.0 0.0 0.00 0.00 0.00 97 1012.5
20260510034250 54 11 0.0 0.0 0.00 0.00 0.00 97 1012.2
20260510033747 54 13 0.0 0.0 0.00 0.00 0.00 97 1012.3
20260510033244 54 349 0.0 0.0 0.00 0.00 0.00 96 1012.4
20260510032740 54 349 0.0 0.0 0.00 0.00 0.00 96 1012.2
20260510032237 54 349 0.0 0.0 0.00 0.00 0.00 96 1012.3
20260510031732 54 349 0.0 0.0 0.00 0.00 0.00 96 1012.3
20260510031228 54 349 0.0 0.0 0.00 0.00 0.00 96 1012.1
20260510030727 54 354 0.0 0.0 0.00 0.00 0.00 96 1012.5
20260510030225 54 354 0.0 0.0 0.00 0.00 0.00 96 1012.3
20260510025722 55 359 0.0 0.0 0.00 0.00 0.00 96 1012.1
20260510025214 55 359 0.0 0.0 0.00 0.00 0.00 95 1012.2
20260510024711 55 359 0.0 0.0 0.00 0.00 0.00 95 1011.9
20260510024207 55 359 0.0 0.0 0.00 0.00 0.00 95 1012.2
20260510023703 55 359 0.0 0.0 0.00 0.00 0.00 95 1012.1
20260510023200 55 359 0.0 0.0 0.00 0.00 0.00 95 1012.0
20260510022656 55 359 0.0 0.0 0.00 0.00 0.00 95 1012.0
20260510022150 55 359 0.0 0.0 0.00 0.00 0.00 94 1012.1
20260510021645 55 359 0.0 0.0 0.00 0.00 0.00 94 1012.1
20260510021138 55 17 0.0 0.0 0.00 0.00 0.00 94 1012.1
20260510020632 55 28 0.0 1.0 0.00 0.00 0.00 94 1012.0
20260510020127 55 14 0.0 0.0 0.00 0.00 0.00 93 1012.2
20260510015624 55 358 0.0 0.0 0.00 0.00 0.00 93 1012.1
20260510015120 55 357 0.0 0.0 0.00 0.00 0.00 94 1012.3
20260510014616 55 358 0.0 0.0 0.00 0.00 0.00 94 1012.3
20260510014113 55 345 0.0 0.0 0.00 0.00 0.00 94 1012.5
20260510013608 55 345 0.0 0.0 0.00 0.00 0.00 93 1012.3
20260510013104 55 345 0.0 0.0 0.00 0.00 0.00 93 1012.7
20260510012603 55 4 0.0 0.0 0.00 0.00 0.00 93 1012.4
20260510012100 55 324 1.0 1.0 0.00 0.00 0.00 94 1012.5
20260510011559 55 355 0.0 0.0 0.00 0.00 0.00 93 1012.7
20260510011055 55 249 1.0 2.0 0.00 0.00 0.00 93 1012.6
20260510010552 55 359 0.0 0.0 0.00 0.00 0.00 94 1012.3
20260510010049 55 0 0.0 0.0 0.00 0.00 0.00 94 1012.4
20260510005544 55 333 0.0 0.0 0.00 0.00 0.00 94 1012.5
20260510005042 55 248 1.0 2.0 0.00 0.00 0.00 94 1012.6
20260510004540 55 334 0.0 0.0 0.00 0.00 0.00 94 1012.8
20260510004038 55 358 0.0 0.0 0.00 0.00 0.00 94 1012.6
20260510003534 55 299 1.0 1.0 0.00 0.00 0.00 94 1012.6
20260510003029 55 339 1.0 1.0 0.00 0.00 0.00 94 1012.5
20260510002525 55 347 0.0 1.0 0.00 0.00 0.00 93 1012.7
20260510002022 56 330 1.0 1.0 0.00 0.00 0.00 93 1012.8
20260510001520 56 340 0.0 0.0 0.00 0.00 0.00 93 1012.7
20260510001018 56 1 0.0 0.0 0.00 0.00 0.00 92 1012.8
20260510000513 56 305 0.0 1.0 0.00 0.00 0.00 92 1012.6
20260510000010 56 328 0.0 0.0 0.00 0.00 0.00 92 1012.5
20260509235507 56 331 0.0 0.0 0.00 0.00 0.00 92 1012.7
20260509235003 56 321 0.0 1.0 0.00 0.00 0.00 92 1012.6
20260509234500 56 325 1.0 1.0 0.00 0.00 0.00 92 1012.7
20260509233958 56 354 0.0 0.0 0.00 0.00 0.00 92 1012.8
20260509233455 56 18 1.0 1.0 0.00 0.00 0.00 92 1012.7
20260509232950 56 6 0.0 0.0 0.00 0.00 0.00 92 1012.6
20260509232449 56 324 1.0 1.0 0.00 0.00 0.00 92 1012.9
20260509231944 56 345 0.0 0.0 0.00 0.00 0.00 92 1012.8
20260509231441 56 341 0.0 1.0 0.00 0.00 0.00 92 1012.8
20260509230939 56 344 0.0 0.0 0.00 0.00 0.00 93 1012.9
20260509230436 56 334 1.0 1.0 0.00 0.00 0.00 92 1012.8
20260509225932 56 332 1.0 1.0 0.00 0.00 0.00 92 1012.8
20260509225428 56 347 0.0 1.0 0.00 0.00 0.00 92 1012.8
20260509224925 56 337 1.0 1.0 0.00 0.00 0.00 92 1013.0
20260509224420 56 325 3.0 3.0 0.00 0.00 0.00 91 1013.2
20260509223917 56 346 0.0 1.0 0.00 0.00 0.00 91 1012.9
20260509223414 57 321 2.0 2.0 0.00 0.00 0.00 90 1013.0
20260509222911 57 338 2.0 2.0 0.00 0.00 0.00 90 1013.1
20260509222406 57 334 0.0 1.0 0.00 0.00 0.00 90 1012.9
20260509221902 57 319 1.0 1.0 0.00 0.00 0.00 89 1013.0
20260509221400 57 301 1.0 1.0 0.00 0.00 0.00 89 1013.0
20260509220855 57 304 0.0 0.0 0.00 0.00 0.00 89 1012.8
20260509220351 58 24 0.0 1.0 0.00 0.00 0.00 89 1013.0
20260509215847 58 274 1.0 1.0 0.00 0.00 0.00 90 1012.9
20260509215343 57 337 0.0 0.0 0.00 0.00 0.00 90 1012.8
20260509214841 57 318 1.0 1.0 0.00 0.00 0.00 90 1013.0
20260509214338 57 350 1.0 1.0 0.00 0.00 0.00 90 1012.9
20260509213835 57 340 2.0 2.0 0.00 0.00 0.00 90 1013.1
20260509213330 57 290 2.0 2.0 0.00 0.00 0.00 89 1013.0
20260509212828 58 346 0.0 0.0 0.00 0.00 0.00 89 1013.1
20260509212326 58 341 0.0 1.0 0.00 0.00 0.00 89 1013.1
20260509211821 57 342 0.0 0.0 0.00 0.00 0.00 90 1013.0
20260509211317 57 328 1.0 1.0 0.00 0.00 0.00 90 1013.1
20260509210814 57 347 0.0 0.0 0.00 0.00 0.00 90 1013.2
20260509210312 57 342 0.0 0.0 0.00 0.00 0.00 90 1013.4
20260509205811 57 341 0.0 0.0 0.00 0.00 0.00 90 1013.2
20260509205307 57 338 1.0 1.0 0.00 0.00 0.00 90 1013.3
20260509204802 57 338 0.0 0.0 0.00 0.00 0.00 90 1013.4
20260509204259 57 336 1.0 1.0 0.00 0.00 0.00 90 1013.4
20260509203755 56 344 0.0 0.0 0.00 0.00 0.00 90 1013.3
20260509203253 56 334 0.0 0.0 0.00 0.00 0.00 91 1013.5
20260509202748 56 338 0.0 0.0 0.00 0.00 0.00 91 1013.4
20260509202244 56 341 0.0 0.0 0.00 0.00 0.00 92 1013.6
20260509201739 56 346 1.0 1.0 0.00 0.00 0.00 93 1013.4
20260509201236 56 354 0.0 0.0 0.00 0.00 0.00 93 1013.4
20260509200732 55 355 0.0 0.0 0.00 0.00 0.00 93 1013.5
20260509200227 55 350 0.0 0.0 0.00 0.00 0.00 94 1013.4
20260509195724 55 346 0.0 0.0 0.00 0.00 0.00 95 1013.5
20260509195218 55 328 2.0 2.0 0.00 0.00 0.00 94 1013.4
20260509194713 55 343 0.0 1.0 0.00 0.00 0.00 94 1013.4
20260509194210 55 345 1.0 1.0 0.00 0.00 0.00 94 1013.7
20260509193706 56 333 3.0 3.0 0.00 0.00 0.00 92 1013.4
20260509193201 55 351 1.0 1.0 0.00 0.00 0.00 93 1013.4
20260509192657 56 345 2.0 2.0 0.00 0.00 0.00 93 1013.4
20260509192153 56 338 1.0 1.0 0.00 0.00 0.00 93 1013.6
20260509191648 55 342 2.0 2.0 0.00 0.00 0.00 92 1013.2
20260509191144 56 336 3.0 3.0 0.00 0.00 0.00 92 1013.1
20260509190641 56 346 1.0 2.0 0.00 0.00 0.00 92 1013.2
20260509190138 56 338 1.0 1.0 0.00 0.00 0.00 93 1013.4
20260509185636 56 343 2.0 2.0 0.00 0.00 0.00 92 1013.4
20260509185131 56 341 2.0 2.0 0.00 0.00 0.00 92 1013.2
20260509184630 56 352 2.0 2.0 0.00 0.00 0.00 93 1013.3
20260509184126 56 343 1.0 2.0 0.00 0.00 0.00 92 1013.3
20260509183623 56 350 1.0 1.0 0.00 0.00 0.00 92 1013.2
20260509183118 56 341 1.0 2.0 0.00 0.00 0.00 91 1013.2
20260509182614 57 350 0.0 1.0 0.00 0.00 0.00 89 1013.2
20260509182111 57 27 0.0 0.0 0.00 0.00 0.00 88 1013.4
20260509181609 57 347 0.0 0.0 0.00 0.00 0.00 89 1013.5
20260509181106 57 312 1.0 1.0 0.00 0.00 0.00 88 1013.3
20260509180602 57 346 0.0 0.0 0.00 0.00 0.00 89 1013.4
20260509180100 56 251 1.0 1.0 0.00 0.00 0.00 88 1013.3
20260509175555 56 27 0.0 0.0 0.00 0.00 0.00 90 1013.3
20260509175052 56 326 1.0 2.0 0.00 0.00 0.00 90 1013.5
20260509174548 56 306 1.0 1.0 0.00 0.00 0.00 89 1013.1
20260509174043 56 344 0.0 0.0 0.00 0.00 0.00 89 1013.3
20260509173538 55 1 0.0 0.0 0.00 0.00 0.00 89 1013.1
20260509173035 55 329 0.0 0.0 0.00 0.00 0.00 90 1013.0
20260509172532 55 346 0.0 0.0 0.00 0.00 0.00 91 1012.9
20260509172028 55 23 0.0 0.0 0.00 0.00 0.00 91 1012.8
20260509171524 55 335 0.0 0.0 0.00 0.00 0.00 92 1012.9
20260509171020 55 332 0.0 0.0 0.00 0.00 0.00 91 1013.2
20260509170516 55 353 0.0 0.0 0.00 0.00 0.00 92 1013.2
20260509170012 55 351 0.0 0.0 0.00 0.00 0.00 92 1013.3
20260509165511 55 337 0.0 0.0 0.00 0.00 0.00 91 1013.0
20260509165006 54 6 0.0 0.0 0.00 0.00 0.00 92 1013.0
20260509164503 55 346 0.0 0.0 0.00 0.00 0.00 93 1013.3
20260509163958 54 348 0.0 0.0 0.00 0.00 0.00 93 1013.1
20260509163456 54 357 0.0 0.0 0.00 0.00 0.00 93 1013.3
20260509162955 54 357 0.0 0.0 0.00 0.00 0.00 94 1013.3
20260509162454 54 3 0.0 0.0 0.00 0.00 0.00 95 1013.2
20260509161950 53 353 0.0 0.0 0.00 0.00 0.00 95 1013.3
20260509161446 53 358 0.0 0.0 0.00 0.00 0.00 98 1013.3
20260509160941 53 18 0.0 0.0 0.00 0.00 0.00 98 1013.3
20260509160438 53 17 0.0 0.0 0.00 0.00 0.00 99 1013.3
20260509155933 53 344 0.0 0.0 0.00 0.00 0.00 99 1013.6
20260509155430 52 340 0.0 0.0 0.00 0.00 0.00 99 1013.5
20260509154926 52 344 0.0 0.0 0.00 0.00 0.00 99 1013.4
20260509154423 52 0 0.0 0.0 0.00 0.00 0.00 99 1013.4
20260509153920 52 350 0.0 0.0 0.00 0.00 0.00 99 1013.3
20260509153417 51 342 0.0 0.0 0.00 0.00 0.00 99 1013.6
20260509152914 51 13 0.0 0.0 0.00 0.00 0.00 99 1013.6
20260509152409 51 13 0.0 0.0 0.00 0.00 0.00 99 1013.4
20260509151907 51 13 0.0 0.0 0.00 0.00 0.00 99 1013.6
20260509151403 51 13 0.0 0.0 0.00 0.00 0.00 99 1013.5
20260509150901 51 13 0.0 0.0 0.00 0.00 0.00 99 1013.4
20260509150359 50 14 0.0 0.0 0.00 0.00 0.00 99 1013.5
20260509145856 50 347 0.0 0.0 0.00 0.00 0.00 99 1013.5
20260509145350 50 347 0.0 0.0 0.00 0.00 0.00 99 1013.4
20260509144847 50 347 0.0 0.0 0.00 0.00 0.00 99 1013.3
20260509144344 50 349 0.0 0.0 0.00 0.00 0.00 99 1013.1
20260509143841 50 348 0.0 0.0 0.00 0.00 0.00 99 1013.2
20260509143338 50 348 0.0 0.0 0.00 0.00 0.00 99 1013.1
20260509142834 50 347 0.0 0.0 0.00 0.00 0.00 99 1013.3
20260509142331 49 347 0.0 0.0 0.00 0.00 0.00 99 1013.4
20260509141827 49 352 0.0 0.0 0.00 0.00 0.00 99 1013.4
20260509141328 49 354 0.0 0.0 0.00 0.00 0.00 99 1013.7
20260509140820 49 340 0.0 0.0 0.00 0.00 0.00 99 1013.5
20260509140317 49 10 0.0 0.0 0.00 0.00 0.00 99 1013.5
20260509135815 49 21 0.0 0.0 0.00 0.00 0.00 99 1013.4
20260509135312 49 6 0.0 0.0 0.00 0.00 0.00 99 1013.5
20260509134810 49 6 0.0 0.0 0.00 0.00 0.00 99 1013.3
20260509134307 49 7 0.0 0.0 0.00 0.00 0.00 99 1013.4
20260509133804 49 5 0.0 0.0 0.00 0.00 0.00 99 1013.4
20260509133300 49 13 0.0 0.0 0.00 0.00 0.00 99 1013.2
20260509132759 49 9 0.0 0.0 0.00 0.00 0.00 99 1013.3
20260509132258 48 8 0.0 0.0 0.00 0.00 0.00 99 1013.2
20260509131753 48 8 0.0 0.0 0.00 0.00 0.00 99 1013.1
20260509131250 48 353 0.0 0.0 0.00 0.00 0.00 99 1013.3
20260509130747 48 10 0.0 0.0 0.00 0.00 0.00 99 1013.0
20260509130242 48 16 0.0 0.0 0.00 0.00 0.00 99 1013.4
20260509125739 48 8 0.0 0.0 0.00 0.00 0.00 99 1013.3
20260509125236 48 8 0.0 0.0 0.00 0.00 0.00 99 1013.3
20260509124732 48 353 0.0 0.0 0.00 0.00 0.00 99 1013.3
20260509124229 48 359 0.0 0.0 0.00 0.00 0.00 99 1013.1
20260509123727 48 13 0.0 0.0 0.00 0.00 0.00 99 1012.9
20260509123224 48 1 0.0 0.0 0.00 0.00 0.00 99 1013.2
20260509122720 48 11 0.0 0.0 0.00 0.00 0.00 99 1013.3
20260509122217 48 6 0.0 0.0 0.00 0.00 0.00 99 1013.4
20260509121713 48 16 0.0 0.0 0.00 0.00 0.00 99 1013.4
20260509121211 48 5 0.0 0.0 0.00 0.00 0.00 99 1013.2
20260509120709 48 16 0.0 0.0 0.00 0.00 0.00 99 1013.4
20260509120207 48 15 0.0 0.0 0.00 0.00 0.00 99 1013.4
20260509115704 48 15 0.0 0.0 0.00 0.00 0.00 99 1013.3
20260509115201 48 13 0.0 0.0 0.00 0.00 0.00 99 1013.3
20260509114700 47 23 0.0 0.0 0.00 0.00 0.00 99 1013.3
20260509114158 47 34 0.0 0.0 0.00 0.00 0.00 99 1013.0
20260509113656 47 35 0.0 0.0 0.00 0.00 0.00 99 1013.2
20260509113153 47 35 0.0 0.0 0.00 0.00 0.00 99 1013.4
20260509112650 47 35 0.0 0.0 0.00 0.00 0.00 99 1013.4
20260509112147 47 36 0.0 0.0 0.00 0.00 0.00 99 1013.4
20260509111644 46 34 0.0 0.0 0.00 0.00 0.00 99 1013.5
20260509111141 46 31 0.0 0.0 0.00 0.00 0.00 99 1013.4
20260509110638 46 31 0.0 0.0 0.00 0.00 0.00 99 1013.7
20260509110135 46 31 0.0 0.0 0.00 0.00 0.00 99 1013.7
20260509105633 46 31 0.0 0.0 0.00 0.00 0.00 99 1013.7
20260509105130 46 31 0.0 0.0 0.00 0.00 0.00 99 1013.6
20260509104627 46 31 0.0 0.0 0.00 0.00 0.00 99 1013.7
20260509104124 46 31 0.0 0.0 0.00 0.00 0.00 99 1013.5
20260509103622 45 31 0.0 0.0 0.00 0.00 0.00 99 1013.8
20260509103120 45 31 0.0 0.0 0.00 0.00 0.00 99 1014.1
20260509102617 45 31 0.0 0.0 0.00 0.00 0.00 99 1014.0
20260509102114 45 31 0.0 0.0 0.00 0.00 0.00 99 1014.0
20260509101610 45 31 0.0 0.0 0.00 0.00 0.00 99 1014.1
20260509101107 45 31 0.0 0.0 0.00 0.00 0.00 99 1014.0
20260509100604 45 31 0.0 0.0 0.00 0.00 0.00 99 1014.3
20260509095557 45 31 0.0 0.0 0.00 0.00 0.00 99 1014.3
20260509095055 45 31 0.0 0.0 0.00 0.00 0.00 99 1014.0
20260509094551 45 31 0.0 0.0 0.00 0.00 0.00 99 1014.2
20260509094049 45 31 0.0 0.0 0.00 0.00 0.00 99 1014.2
20260509093547 45 31 0.0 0.0 0.00 0.00 0.00 99 1014.3
20260509093044 45 31 0.0 0.0 0.00 0.00 0.00 99 1014.3
20260509092542 45 31 0.0 0.0 0.00 0.00 0.00 99 1014.2
20260509092040 45 31 0.0 0.0 0.00 0.00 0.00 99 1014.4
20260509091537 45 31 0.0 0.0 0.00 0.00 0.00 99 1014.5
20260509091034 45 31 0.0 0.0 0.00 0.00 0.00 99 1014.3
20260509090531 45 31 0.0 0.0 0.00 0.00 0.00 99 1014.5
20260509090029 45 31 0.0 0.0 0.00 0.00 0.00 99 1014.4
20260509085526 45 31 0.0 0.0 0.00 0.00 0.00 99 1014.2
20260509085022 45 31 0.0 0.0 0.00 0.00 0.00 99 1014.3
20260509084519 45 31 0.0 0.0 0.00 0.00 0.00 99 1014.7
20260509084016 45 31 0.0 0.0 0.00 0.00 0.00 99 1014.8
20260509083513 45 31 0.0 0.0 0.00 0.00 0.00 99 1014.8
20260509083010 45 31 0.0 0.0 0.00 0.00 0.00 99 1015.1
20260509082508 45 31 0.0 0.0 0.00 0.00 0.00 99 1014.8
20260509082004 45 31 0.0 0.0 0.00 0.00 0.00 99 1014.9
20260509081502 45 31 0.0 0.0 0.00 0.00 0.00 99 1015.0
20260509080958 45 31 0.0 0.0 0.00 0.00 0.00 99 1014.9
20260509080456 45 31 0.0 0.0 0.00 0.00 0.00 99 1015.0
20260509075954 45 31 0.0 0.0 0.00 0.00 0.00 99 1014.8
20260509075451 45 31 0.0 0.0 0.00 0.00 0.00 99 1014.8
20260509074949 45 31 0.0 0.0 0.00 0.00 0.00 99 1014.9
20260509074446 46 31 0.0 0.0 0.00 0.00 0.00 99 1015.0
20260509073942 46 31 0.0 0.0 0.00 0.00 0.00 99 1015.2
20260509073439 46 29 0.0 0.0 0.00 0.00 0.00 99 1015.2
20260509072935 46 29 0.0 0.0 0.00 0.00 0.00 99 1015.3
20260509072432 46 30 0.0 0.0 0.00 0.00 0.00 99 1014.9
20260509071929 46 29 0.0 0.0 0.00 0.00 0.00 99 1015.0
20260509071426 46 29 0.0 0.0 0.00 0.00 0.00 99 1015.0
20260509070923 46 29 0.0 0.0 0.00 0.00 0.00 99 1015.3
20260509070420 46 29 0.0 0.0 0.00 0.00 0.00 99 1015.2
20260509065915 46 29 0.0 0.0 0.00 0.01 0.01 99 1015.0
20260509065412 46 29 0.0 0.0 0.00 0.01 0.01 99 1015.3
20260509064908 46 29 0.0 0.0 0.00 0.01 0.01 99 1015.1
20260509064406 46 29 0.0 0.0 0.00 0.01 0.01 99 1015.2
20260509063903 46 28 0.0 0.0 0.00 0.01 0.01 99 1015.2
20260509063359 46 29 0.0 0.0 0.00 0.01 0.01 99 1015.3
20260509062856 46 29 0.0 0.0 0.00 0.01 0.01 99 1015.5
20260509062353 46 28 0.0 0.0 0.00 0.01 0.01 99 1015.6
20260509061851 47 42 0.0 0.0 0.00 0.01 0.01 99 1015.6
20260509061349 47 42 0.0 0.0 0.00 0.01 0.01 99 1015.6
20260509060845 47 42 0.0 0.0 0.00 0.01 0.01 99 1015.8
20260509060342 47 42 0.0 0.0 0.00 0.01 0.01 99 1015.7
20260509055837 47 43 0.0 0.0 0.00 0.01 0.01 99 1015.6
20260509055333 47 45 0.0 0.0 0.00 0.01 0.01 99 1016.0
20260509054831 47 45 0.0 0.0 0.00 0.01 0.01 99 1015.5
20260509054327 47 31 0.0 0.0 0.00 0.01 0.01 99 1015.7
20260509053826 47 31 0.0 0.0 0.00 0.01 0.01 99 1015.8
20260509053322 47 31 0.0 0.0 0.00 0.01 0.01 99 1015.9
20260509052821 47 20 0.0 0.0 0.00 0.01 0.01 99 1015.7
20260509052318 47 15 0.0 0.0 0.00 0.01 0.01 99 1016.3